Location: Gleizolles
(44.4833°N, 6.7667°E)
Time: 21:08:22
(UTC+00:00)

Tiros 1 despin weight - Pass Details

Date: 03 July 2024
Orbit: 576 x 620 km, 48.2° (Epoch: 19 July)

Event Time Altitude Azimuth Distance (km) Brightness Sun altitude
Rises 11:27:28 0° 288° (WNW) 2,886 ? 68.3°
Reaches altitude 10° 11:29:48 10° 291° (WNW) 1,983 ? 68.4°
Maximum altitude 11:34:20 67° 14° (NNE) 675 ? 68.4°
Drops below altitude 10° 11:38:54 10° 98° (E) 1,984 ? 68.4°
Sets 11:41:13 0° 101° (E) 2,887 ? 68.4°
